Location: Britt
(43.0991°N, 93.8016°W)
Time: 04:20:41
(UTC+00:00)

Daily predictions for brighter satellites

Satellite Brightness Start Highest point End
(mag) Time Altitude Azimuth Time Altitude Azimuth Time Altitude Azimuth
SPOT 1/Viking Rocket 3.8 01:20:46 10° SSE 01:25:49 54° ENE 01:30:54 10° N
Cosmos 2341 Rocket 4.2 01:22:13 10° N 01:28:22 52° ENE 01:34:26 10° SSE
Cosmos 1674 Rocket 3.7 01:24:28 10° N 01:28:56 85° W 01:33:23 10° S
Cosmos 1825 2.4 01:26:01 10° N 01:29:18 40° ENE 01:32:34 10° SSE
CZ-4B R/B 3.5 01:25:45 10° SE 01:31:14 54° ENE 01:36:42 10° N
Okean-O 4.3 01:29:09 10° ESE 01:32:00 17° ENE 01:34:52 10° NNE
USA 234 3.3 01:29:19 10° SE 01:35:53 86° NE 01:42:27 10° NW
Cosmos 2082 Rocket 4.2 01:31:42 10° NW 01:36:34 30° WSW 01:41:24 10° SSW
NOSS 3-1 (C) 3.7 01:33:52 10° S 01:37:56 29° ESE 01:42:33 10° NE
Cosmos 2344 4.1 01:34:19 10° SW 01:41:52 62° NW 01:49:12 10° NNE
Resurs 1-3 3.8 01:39:53 10° S 01:44:13 78° WSW 01:48:35 10° NNW
IKONOS-2 4.4 01:42:38 10° NNE 01:46:53 85° ESE 01:51:05 10° SSW
Cosmos 2366 rocket 4.1 01:41:42 10° N 01:48:00 60° E 01:54:15 10° SSE
Cosmos 1025 Rocket 3.1 01:45:29 10° N 01:49:48 62° E 01:54:07 10° SSE
Okean O Rocket 1.8 01:49:57 10° SSE 01:54:09 52° ENE 01:58:23 10° N
NOSS 2-3 (C) 4.3 01:50:44 10° SW 01:54:16 47° NW 01:58:11 10° NNE
Cosmos 2218 Rocket 4.1 01:48:57 10° N 01:55:21 66° E 02:01:39 10° SSE
ATLAS 3B R/B 3.5 01:53:35 10° SSE 01:59:26 30° ESE 02:05:38 10° NE
NOSS 2-3 (D) 4.4 01:55:55 10° WSW 01:59:26 45° NW 02:03:20 10° NNE
Resurs 01 Rocket 1.7 01:55:29 10° SSE 01:59:48 61° ENE 02:04:11 10° N
Cosmos 1975 Rocket 3.4 01:57:44 10° N 02:01:54 44° ENE 02:05:11 15° SE
CARTOSAT-1 3.6 01:58:16 10° SSE 02:02:26 57° ENE 02:06:39 10° N
Cosmos 1346 Rocket 2.7 01:59:10 10° S 02:02:59 88° W 02:06:50 10° N
Cosmos 1821 Rocket 4.4 01:57:41 10° N 02:03:33 44° ENE 02:08:32 14° SE
USA 129 1.7 02:01:49 10° NNE 02:04:28 52° E 02:05:08 33° SSE
SJ-6B 4.1 02:00:49 10° S 02:04:33 41° W 02:08:21 10° NNW
USA 281 3.4 01:59:34 12° SE 02:05:32 60° ENE 02:11:59 10° NNW
Cosmos 1959 Rocket 4.4 01:59:26 10° N 02:05:34 74° E 02:11:43 10° SSE
Cosmos 1328 3.7 02:03:28 10° N 02:07:16 82° W 02:11:03 10° S
Cosmos 1302 Rocket 4.0 02:02:48 10° SSW 02:08:04 86° WNW 02:13:21 10° NNE
SL-27 R/B 3.9 02:08:16 10° NNE 02:10:12 16° ENE 02:10:18 16° ENE
OAO 3 Rocket 4.2 02:06:43 10° WSW 02:11:02 31° S 02:13:29 20° SE
Meteor 1-21 Rocket 4.3 02:06:57 10° N 02:12:54 90° W 02:18:50 10° S
Cosmos 1892 4.1 02:12:29 10° NNW 02:15:48 36° W 02:19:04 10° SSW
Cosmos 1782 Rocket 3.6 02:12:15 10° S 02:16:36 81° W 02:21:01 10° N
USA 186 2.9 02:16:58 10° S 02:19:54 40° W 02:22:49 10° NNW
CZ-4 R/B 3.4 02:21:29 10° SSW 02:24:53 27° W 02:28:16 10° NW
ATLAS 5 CENTAUR R/B 1.1 02:21:54 10° SSW 02:25:03 43° ESE 02:28:27 10° NE
SL-4 R/B 3.7 02:22:32 10° WNW 02:25:38 25° NNW 02:28:36 10° NE
SPOT 5 3.7 02:24:44 25° ESE 02:27:14 40° ENE 02:32:10 10° N
Cosmos 2151 Rocket 4.5 02:28:53 27° E 02:29:05 27° E 02:32:49 10° NNE
Cosmos 1455 3.5 02:25:52 10° SSW 02:29:13 39° WNW 02:32:35 10° N
BREEZE-M R/B 4.1 02:27:25 10° NW 02:29:23 19° N 02:30:33 14° NE
Meteor 1-11 4.2 02:27:03 10° N 02:32:42 71° ENE 02:36:33 21° SSE
ERS-1 Rocket 3.9 02:36:15 27° E 02:37:31 31° ENE 02:41:54 10° N
Cosmos 1300 Rocket 4.3 02:38:50 10° SSW 02:43:04 52° WNW 02:47:22 10° N
Celestis-02/Orion 38 4.5 02:40:45 32° SE 02:43:08 75° ENE 02:48:12 10° NNW
MOS 1 4.2 02:45:26 27° SSE 02:48:43 81° ENE 02:54:27 10° NNW
Cosmos 1934 Rocket 4.4 02:43:48 10° N 02:49:37 43° ENE 02:51:27 34° ESE
In-Cosmos 22 Rocket 4.4 02:45:21 10° NNW 02:50:43 69° W 02:54:48 18° S
SJ 16-02 2.6 02:47:09 10° NW 02:51:09 37° WSW 02:54:07 16° SSW
Okean 2 Rocket 3.3 02:52:04 46° E 02:52:16 46° E 02:56:35 10° NNE
CZ-4C R/B 3.5 02:51:15 10° N 02:54:40 58° WNW 02:56:34 23° SW
Cosmos 371 Rocket 4.0 02:53:41 10° N 02:58:05 35° ENE 02:58:27 34° ENE
Cosmos 2297 Rocket 3.6 02:53:56 10° N 02:58:20 23° NE 02:59:36 21° ENE
IRS-1C Rocket 4.0 02:56:50 40° SSE 02:58:48 76° ENE 03:04:06 10° N
Cosmos 2369 Rocket 4.3 02:55:55 10° WSW 03:00:46 28° NW 03:05:37 10° N
Cosmos 1503 Rocket 4.5 02:55:46 10° N 03:00:54 44° ENE 03:01:49 40° E
NOSS 3-1 (A) 2.8 02:59:52 10° SSW 03:04:38 66° ESE 03:10:17 10° NE
Cosmos 2098 Rocket 4.3 03:00:36 10° SSW 03:05:48 46° W 03:10:06 10° N
MetOp-B 4.1 03:05:02 41° SSE 03:07:01 89° WSW 03:12:25 10° NNW
Sich 1 Rocket 3.4 03:07:42 69° ESE 03:07:50 69° E 03:12:15 10° NNE
Spot 2 Rocket 3.8 03:07:30 44° E 03:07:57 45° ENE 03:12:47 10° N
Okean-O 3.3 03:06:02 29° SSW 03:08:00 50° W 03:12:17 10° NNW
Terra 2.0 03:09:26 49° E 03:09:37 50° ENE 03:14:11 10° N
Cosmos 304 Rocket 4.4 03:10:06 10° N 03:14:28 39° ENE 03:14:28 39° ENE
IRS-1A Rocket 4.4 03:20:51 43° S 03:22:54 79° WSW 03:28:50 10° NNW
USA 245 4.0 03:22:34 58° SSE 03:23:43 86° ENE 03:28:45 10° NNW
Ariane Rocket 2.9 03:27:13 69° E 03:27:22 70° ENE 03:32:24 10° N
Cosmos 1656 4.3 03:29:29 39° ENE 03:29:29 39° ENE 03:33:17 10° NE
NOSS 3-1 (C) 4.3 03:23:40 10° WSW 03:28:21 42° NW 03:33:57 10° NNE
Okean 1 Rocket 3.6 03:29:40 49° NNE 03:29:40 49° NNE 03:33:03 10° NNE
Okean O Rocket 4.3 03:28:17 10° SW 03:30:44 15° W 03:33:13 10° NW
Cosmos 1241 Rocket 4.4 03:26:55 10° NNW 03:33:15 86° ENE 03:34:21 63° SE
SPOT 3 Rocket 3.4 03:34:30 72° E 03:34:33 72° ENE 03:39:45 10° N
Resurs 01 Rocket 4.4 03:34:38 10° WSW 03:36:39 13° W 03:38:40 10° WNW
Cosmos 1486 Rocket 4.3 03:34:07 10° NNW 03:39:13 56° WSW 03:39:52 52° SW
ATLAS 3B R/B 3.2 03:42:41 10° SW 03:49:40 63° NW 03:57:11 10° NNE
Iridium 4 Rocket 3.8 03:49:30 60° SW 03:50:11 67° W 03:55:51 10° N
Cosmos 1605 Rocket 3.9 03:48:44 10° N 03:55:10 82° E 03:55:30 79° SE
Cosmos 1932 4.3 03:51:58 10° NW 03:58:13 79° WSW 03:58:24 78° SW
SL-4 R/B 4.4 04:02:33 10° NW 04:04:04 17° NNW 04:04:04 17° NNW
ATLAS 5 CENTAUR R/B 3.9 04:06:54 10° W 04:09:14 17° NW 04:11:44 10° N
Cosmos 2227 Rocket 3.1 04:08:23 10° NNW 04:12:58 40° NE 04:12:58 40° NE
ERS-1 Rocket 4.3 04:16:11 32° W 04:16:12 32° W 04:20:42 10° NNW
Cosmos 1727 Rocket 4.2 04:24:15 61° NNE 04:24:15 61° NNE 04:29:27 10° N
Cosmos 1697 Rocket 4.2 04:30:32 27° NE 04:30:32 27° NE 04:33:05 10° NNE
CZ-4C R/B 3.3 04:28:36 10° NNW 04:35:37 54° NE 04:36:24 53° ENE
Cosmos 2297 Rocket 3.0 04:37:15 10° NNW 04:41:24 47° NW 04:41:24 47° NW
COSMOS 2455 3.3 04:39:20 10° NNW 04:44:04 57° NNW 04:44:04 57° NNW
Terra 4.1 04:48:09 17° W 04:48:09 17° W 04:50:42 10° NW
Cosmos 2219 4.3 04:44:58 10° NNW 04:48:52 38° NNE 04:48:52 38° NNE
USA 229 DEB 4.0 05:03:21 55° NW 05:03:21 55° NW 05:09:53 10° NNE
USA 229 4.0 05:03:34 55° NW 05:03:34 55° NW 05:10:01 10° NNE
CENTAUR R/B 3.6 05:06:20 10° NNW 05:14:28 57° NE 05:15:26 55° ENE
Cosmos 2263 Rocket 3.5 05:12:13 10° NNW 05:15:40 35° N 05:15:40 35° N
Cosmos 2227 Rocket 4.3 05:52:48 10° NW 05:54:46 19° WNW 05:54:46 19° WNW
Cosmos 1980 Rocket 3.7 06:02:44 32° N 06:02:44 32° N 06:05:54 10° NNE
USA 267 4.4 06:04:36 30° ENE 06:06:52 39° NNE 06:12:50 10° NW
CZ-4C R/B 4.1 06:17:09 10° NW 06:21:30 33° WNW 06:21:30 33° WNW
NOSS 3-2 (A) 4.3 06:17:56 10° NW 06:24:00 63° NW 06:24:00 63° NW
Cosmos 2333 Rocket 4.0 06:52:51 25° NE 06:52:51 25° NE 06:55:27 10° NE
Cosmos 2360 Rocket 3.8 06:56:51 29° NE 06:56:51 29° NE 06:59:40 10° NE
Cosmos 2322 Rocket 3.5 07:06:40 35° NNE 07:06:40 35° NNE 07:09:51 10° NNE
CENTAUR R/B 4.1 06:57:15 10° NW 07:02:34 36° WNW 07:02:34 36° WNW
Cosmos 2219 Rocket 3.9 07:14:08 27° ENE 07:14:08 27° ENE 07:17:05 10° NE
USA 215 3.6 07:09:36 10° NE 07:15:23 61° N 07:15:23 61° N
SL-16 R/B 3.5 07:22:36 36° N 07:22:36 36° N 07:26:17 10° NNE
NOSS 3-4 (A) 4.4 07:26:04 37° ENE 07:26:04 37° ENE 07:29:43 10° NE
NOSS 3-4 (C) 4.4 07:26:07 37° ENE 07:26:07 37° ENE 07:29:46 10° NE
ADEOS II 4.0 07:33:15 10° NE 07:36:45 22° E 07:36:45 22° E
NOSS 3-2 (C) 4.4 07:30:34 10° NW 07:36:10 51° WNW 07:36:10 51° WNW
USA 267 3.9 07:51:52 44° NW 07:51:52 44° NW 07:56:05 10° NW
CZ-2D R/B 3.2 07:45:25 10° NNE 07:49:32 40° ENE 07:49:32 40° ENE
Cosmos 1634 Rocket 4.3 07:45:26 10° N 07:50:41 64° N 07:50:41 64° N
SL-16 R/B 3.9 07:51:52 20° ESE 07:55:17 34° ENE 08:00:46 10° N
COSMOS 2428 3.3 08:10:38 50° E 08:10:38 50° E 08:15:38 10° NE
BlueWalker 3 4.4 08:15:54 21° NNE 08:15:54 21° NNE 08:18:30 10° ENE
CZ-2C R/B 2.9 08:17:16 67° ENE 08:17:16 67° ENE 08:22:25 10° N
Cosmos 2237 Rocket 3.9 08:16:42 22° ESE 08:17:45 23° E 08:22:07 10° NE
Lacrosse 5 2.8 08:21:30 41° NNW 08:21:30 41° NNW 08:25:48 10° NE
Cosmos 44 Rocket 4.0 08:23:32 54° N 08:23:32 54° N 08:27:41 10° NNE
CZ-2C R/B 3.6 08:18:37 10° NNE 08:23:30 53° E 08:23:30 53° E
ALOS 3.8 08:19:48 10° NE 08:23:50 29° E 08:23:56 29° E
Cosmos 2322 3.7 08:26:12 77° NE 08:26:12 77° NE 08:31:32 10° NNE
NPP 3.9 08:20:59 10° N 08:25:32 60° NNW 08:25:32 60° NNW
Resurs 1-4 Rocket 2.3 08:25:33 10° N 08:30:10 65° NNW 08:30:10 65° NNW
Cosmos 1536 4.5 08:29:40 10° N 08:32:13 32° NE 08:32:13 32° NE
Cosmos 2333 Rocket 3.3 08:34:50 32° NW 08:34:50 32° NW 08:39:35 10° N
USA 238 4.5 08:30:25 10° NW 08:35:37 41° W 08:35:37 41° W
Cosmos 2360 Rocket 3.6 08:38:35 26° NW 08:38:35 26° NW 08:43:12 10° N
Cosmos 2279 Rocket 4.1 08:35:35 10° NNW 08:41:09 55° WNW 08:41:09 55° WNW
Nadezhda 4 Rocket 3.9 08:44:01 63° SSE 08:45:03 80° E 08:51:11 10° N
Cosmos 1538 Rocket 3.9 08:48:33 81° SE 08:48:43 82° ESE 08:54:05 10° NNE
Cosmos 2322 Rocket 4.0 08:48:27 18° NW 08:48:56 18° NW 08:52:44 10° N
NOSS 0 Rocket 4.1 08:48:14 52° SSE 08:49:27 63° ESE 08:55:32 10° NNE
Okean 1 4.3 08:50:16 42° NE 08:50:16 42° NE 08:53:09 10° NNE
GP-B 3.5 08:45:31 10° N 08:49:52 56° E 08:49:52 56° E
IDEFIX/ARIANE 42P 3.3 08:45:18 10° N 08:49:33 40° NW 08:49:33 40° NW
Cosmos 2278 Rocket 3.0 08:45:06 10° NNW 08:50:39 51° ENE 08:56:09 10° SE
Meteor 2-17 Rocket 4.4 08:54:21 54° S 08:55:51 83° E 09:01:59 10° N
Cosmos 2219 Rocket 3.0 08:55:50 35° WNW 08:55:57 35° NW 09:01:03 10° N
COBE Rocket 4.5 08:53:06 10° N 08:56:45 42° NW 08:56:45 42° NW
BREEZE-M DEB (TANK) 4.4 09:00:46 41° SSE 09:01:37 45° SE 09:12:24 10° ENE
Cosmos 1461 4.0 08:58:20 10° NNW 09:01:59 40° NE 09:05:34 10° ESE
Gbstr 26 Del rocket 3.5 09:02:52 50° NNW 09:02:52 50° NNW 09:06:25 10° NE
RESURS DK-1 2.6 09:04:22 65° NNE 09:04:22 65° NNE 09:07:52 10° NNE
MSX 4.4 09:00:38 10° N 09:05:59 40° WNW 09:06:21 40° WNW
Cosmos 1151 Rocket 3.7 09:07:55 42° SE 09:08:50 50° E 09:13:01 10° NNE
CZ-2C R/B 4.1 09:06:00 10° NNE 09:10:36 31° E 09:14:38 12° SSE
ADEOS II 2.4 09:12:09 10° N 09:17:10 47° WNW 09:17:38 46° W
Meteor 1-19 Rocket 4.3 09:20:01 39° S 09:22:23 89° W 09:28:26 10° N
FENGYUN 3A 3.9 09:17:11 10° N 09:22:25 51° WNW 09:23:20 46° WSW
Cosmos 1408 Rocket 4.3 09:18:49 10° NNW 09:21:54 37° NW 09:21:54 37° NW
Cosmos 923 Rocket 4.1 09:23:20 40° S 09:25:12 75° ESE 09:30:28 10° NNE
Cosmos 1092 Rocket 3.9 09:24:59 30° S 09:28:12 90° WNW 09:34:23 10° N
CZ-2D R/B 3.3 09:25:57 10° N 09:30:18 26° WNW 09:30:50 26° WNW
Envisat 3.3 09:26:38 10° NNE 09:31:41 63° E 09:34:51 23° S
NOSS 2-2 (E) 4.0 09:29:23 10° NW 09:34:07 83° SW 09:40:54 10° SSE
Cosmos 2026 Rocket 3.9 09:32:11 29° SSW 09:35:40 80° W 09:42:04 10° N
BREEZE-M DEB (TANK) 2.9 09:34:05 36° SW 09:36:12 64° SSE 09:39:08 10° ENE
SL-16 R/B 2.9 09:36:56 35° SW 09:38:42 42° W 09:44:34 10° NNW
Cosmos 1805 Rocket 3.6 09:35:24 10° NNW 09:39:36 51° W 09:39:58 49° WSW
EO 1 Delta rocket 3.7 09:35:15 10° N 09:39:54 76° WNW 09:41:50 35° SSW
Cosmos 1500 Rocket 4.0 09:35:57 10° NNW 09:40:03 41° W 09:40:03 41° W
UNK 3.9 09:40:18 44° SW 09:40:57 48° W 09:45:24 10° NNW
Cosmos 1666 Rocket 4.2 09:38:52 10° N 09:43:16 57° E 09:47:37 10° SSE
CZ-4 R/B 3.7 09:42:59 10° N 09:47:45 75° WNW 09:49:59 31° SSW
NOSS 2-2 (D) 4.0 09:44:04 10° NW 09:48:42 85° WSW 09:55:21 10° SSE
Meteor 1-27 Rocket 4.0 09:46:40 32° SW 09:49:00 51° WNW 09:54:34 10° N
Thor Agena Rocket 3.8 09:44:26 10° NNE 09:49:28 66° ESE 09:53:50 14° S
Cosmos 1733 3.1 09:46:07 10° NNW 09:49:38 51° W 09:49:46 50° WSW
Cosmos 1943 Rocket 2.2 09:44:10 10° NNW 09:49:52 85° ENE 09:55:32 10° SSE
YAOGAN 6 2.8 09:48:09 10° NNE 09:51:24 58° E 09:53:02 26° S
H-2A R/B 4.2 09:49:06 10° NE 09:53:06 24° E 09:57:10 10° SSE
Meteor 2-4 Rocket 3.7 09:48:37 14° S 09:53:15 77° E 09:58:46 10° NNE
BlueWalker 3 2.3 09:50:33 10° NW 09:54:21 62° NNE 09:58:08 10° ESE
COSMOS 2428 3.9 09:52:37 22° W 09:54:38 27° NW 09:59:25 10° N
NOAA 11 4.2 09:52:08 10° NNE 09:57:36 89° ESE 10:02:19 14° SSW
CZ-2C R/B 4.3 09:58:45 16° WNW 09:58:45 16° WNW 10:01:11 10° NW
ALOS 3.2 09:56:59 10° N 10:01:00 30° WNW 10:02:16 26° W
Cosmos 2237 Rocket 2.5 09:58:31 27° SW 10:01:23 53° WNW 10:06:57 10° NNE
Cosmos 1980 4.1 09:59:54 27° WSW 10:02:42 49° WNW 10:08:11 10° NNE
CZ-2C R/B 4.5 09:59:21 10° NNW 10:03:08 21° WNW 10:04:32 19° W
Cosmos 1867 4.3 09:58:57 10° NW 10:03:41 30° WSW 10:08:22 10° S
Sich 1 3.9 10:01:01 10° NNW 10:04:35 27° W 10:04:47 27° W
Cosmos 2112 Rocket 4.0 10:01:07 21° SSW 10:04:46 80° WNW 10:10:09 10° NNE
Lacrosse 5 4.0 10:01:28 10° WNW 10:05:03 19° NNW 10:08:38 10° NNE
Cosmos 1340 Rocket 2.7 10:04:12 29° SSW 10:06:01 62° WNW 10:09:52 10° N
Cosmos 2369 Rocket 4.4 10:04:06 10° N 10:08:55 28° NE 10:13:41 10° ESE
Resurs 1-4 Rocket 4.1 10:08:03 10° NW 10:09:44 11° NW 10:11:14 10° WNW
Cosmos 1805 3.1 10:07:04 10° NNW 10:10:42 54° W 10:13:52 13° S
DMSP B5D2-2 4.1 10:05:33 10° SSE 10:10:44 84° ENE 10:15:58 10° NNW
Cosmos 1328 Rocket 3.5 10:08:30 14° SSW 10:12:13 78° W 10:16:40 10° N
ATLAS 2AS CENTAUR R/B 3.0 10:07:19 14° SSW 10:13:57 76° ESE 10:21:09 10° NE
SWAS 4.3 10:12:43 10° NNW 10:16:54 67° WSW 10:21:04 10° SSE
IRS-1D 3.5 10:15:43 10° N 10:20:46 70° WNW 10:25:55 10° SSW
Chandra Rocket (1) 4.2 10:19:44 10° S 10:21:09 12° SSE 10:22:59 10° SE
CSL-04 DEB 4.4 10:17:07 10° NNE 10:21:17 81° WNW 10:25:27 10° SSW
Cosmos 1633 Rocket 3.0 10:16:58 10° NNW 10:21:17 67° W 10:25:34 10° S
S3M 4.4 10:16:21 10° N 10:22:29 66° E 10:28:39 10° SSE
Cosmos 2266 Rocket 4.1 10:25:02 10° S 10:31:07 79° E 10:37:10 10° N
Cosmos 1680 Rocket 4.1 10:28:09 16° SW 10:31:58 40° WNW 10:36:58 10° N
Cosmos 2278 Rocket 3.2 10:29:54 10° NW 10:34:21 24° WSW 10:38:47 10° SSW
Iridium 51 3.9 10:34:28 10° SSW 10:37:48 57° W 10:41:07 10° N
Cosmos 1461 4.1 10:37:21 10° WNW 10:39:57 18° WSW 10:42:32 10° SSW
Cosmos 1420 Rocket 4.4 10:35:57 10° NNW 10:40:52 42° WSW 10:45:48 10° S
Cosmos 2056 Rocket 3.8 10:39:44 10° NNW 10:44:53 47° WSW 10:50:02 10° S
USA 308 2.9 10:41:22 11° SW 10:44:53 66° SE 10:48:46 10° ENE
Cosmos 1674 2.7 10:42:32 10° S 10:45:56 71° E 10:49:22 10° NNE
CZ-2C R/B 3.3 10:44:03 10° N 10:48:41 34° WNW 10:53:17 10° SW
Cosmos 2315 Rocket 4.4 10:43:02 10° N 10:49:14 72° E 10:55:24 10° SSE
Cosmos 494 Rocket 3.9 10:44:05 10° SSW 10:49:15 76° WNW 10:54:25 10° NNE
Cosmos 1766 3.1 10:47:07 10° NNW 10:50:45 58° W 10:54:22 10° S
Cosmos 1939 Rocket 3.4 10:47:23 10° NNE 10:51:06 56° E 10:54:49 10° S
SL-16 R/B 2.3 10:46:19 10° SW 10:51:55 67° WNW 10:57:35 10° NNE
Cosmos 1452 Rocket 4.2 10:46:49 10° NNW 10:52:03 61° ENE 10:57:12 10° SSE
Cosmos 1340 3.6 10:50:09 10° NW 10:52:53 22° W 10:55:36 10° SW
Cosmos 1626 2.8 10:52:13 10° SW 10:55:05 27° WNW 10:57:59 10° NNW
Cosmos 921 Rocket 3.9 10:53:41 10° SW 10:57:26 30° WNW 11:01:17 10° N
Cosmos 1975 4.2 10:54:42 10° NW 10:57:26 19° W 11:00:11 10° SW
KORONAS-FOTON 3.7 10:54:25 10° S 10:58:05 85° E 11:01:46 10° N
Cosmos 1656 Rocket 3.8 10:53:03 10° NNW 10:58:30 81° ENE 11:03:55 10° SSE
NOSS 3-1 (C) 4.2 10:52:18 10° NW 10:59:52 83° SW 11:08:56 10° SSE
Cosmos 1515 Rocket 3.9 10:57:45 10° SSW 11:02:03 48° WNW 11:06:23 10° N
Cosmos 1869 Rocket 4.1 11:01:13 10° N 11:05:34 65° E 11:09:51 10° SSE
CZ-3 R/B 3.9 11:07:41 10° SW 11:20:54 26° S 11:26:38 10° SE
